User: anonymous   Login
Location: *
(49.0044°N, 9.5056°E)
Time: 09:27:23
(UTC+00:00)
Language:

SL-8 R/B - Orbit

View from above orbital plane
View from above orbital plane
View from above satellite
View from above satellite

Ground track
Ground track

The orbit data is extracted from the following two-line orbital elements,

1 33066U 08031G   19325.35067185 -.00000138 +00000-0 +96527-5 0  9992
2 33066 048.4440 280.2188 0008238 267.5070 092.4897 14.69677687613191
Epoch (UTC): 21 November 2019 08:24:58
Eccentricity: 0.0008238
inclination: 48.4440°
perigee height: 656 km
apogee height: 668 km
right ascension of ascending node: 280.2188°
argument of perigee: 267.5070°
revolutions per day: 14.69677687
mean anomaly at epoch: 92.4897°
orbit number at epoch: 61319

The dashed part of the orbit path shows where the satellite is in the earth's shadow,  

DLR